Temp
63 60 59 58 56 53 52 52 50 48 47 47 47 48 46 46 45 46 44 45 45 42
61 61 60 57 56 54 53 50 48 46 45 45 45 45 45 43 42 42 42 42 42 42
61 62 59 56 53 51 48 46 45 43 43 43 43 43 42 40 41 40 39 39 39 38
59 58 55 53 51 48 45 43 43 42 42 42 41 41 40 39 39 38 37 37 36 36
47 48 47 46 43 42 40 41 41 42 41 40 40 40 39 39 38 37 35 35 34 35
40 39 38 38 39 40 40 40 41 40 39 38 38 38 38 37 36 35 34 34 34 35
39 39 39 39 39 39 39 39 39 38 38 37 37 36 36 35 33 33 34 35 34 34
38 38 38 37 36 36 36 36 36 35 35 34 33 34 32 32 32 32 32 32 33 32
36 35 35 34 33 33 32 32 32 32 32 31 33 35 35 33 32 32 32 31 32 32
34 33 32 33 32 32 32 32 31 31 31 31 32 35 35 34 32 31 31 32 32 33
33 32 32 32 31 32 32 31 30 30 30 30 32 35 35 34 32 32 32 31 31 31
30 29 29 29 29 30 30 30 29 30 29 29 30 33 33 32 30 30 30 31 31 30
29 28 27 28 28 29 30 30 30 29 28 26 26 32 32 31 29 27 27 28 29 29
27 26 26 26 26 26 25 25 25 24 24 24 25 27 30 30 27 25 23 23 23 25
MSLP
1008.86 1009.61 1010.16 1010.80 1011.32 1012.10 1012.57 1013.04 1013.78 1014.27 1014.90 1015.33 1015.50 1015.83 1016.17 1016.54 1016.85 1017.23 1017.56 1018.14 1018.56 1018.95
1008.48 1009.11 1009.58 1010.12 1010.78 1011.35 1012.03 1012.70 1013.24 1013.87 1014.61 1015.16 1015.57 1016.04 1016.44 1016.79 1017.18 1017.48 1017.75 1018.13 1018.47 1018.88
1008.07 1008.66 1009.10 1009.87 1010.41 1011.02 1011.77 1012.40 1013.33 1013.98 1014.56 1015.16 1015.54 1016.03 1016.54 1017.12 1017.59 1017.78 1018.30 1018.66 1018.90 1019.10
1008.15 1008.59 1009.14 1009.52 1010.26 1010.48 1011.64 1012.42 1013.20 1014.09 1014.72 1015.20 1015.69 1016.32 1017.06 1017.31 1018.21 1018.67 1018.98 1019.45 1019.68 1019.62
1009.44 1009.88 1010.22 1010.40 1011.03 1011.48 1012.37 1013.48 1014.29 1015.09 1015.63 1015.69 1016.23 1016.74 1017.80 1017.98 1019.08 1018.99 1019.45 1019.61 1020.01 1019.98
1011.44 1011.74 1012.25 1012.53 1013.20 1013.52 1013.83 1014.74 1015.52 1016.25 1017.03 1017.83 1017.87 1018.33 1018.77 1018.97 1019.42 1019.85 1020.05 1020.41 1020.22 1020.33
1012.79 1013.26 1014.17 1014.16 1013.88 1014.08 1015.37 1016.05 1016.47 1017.40 1018.01 1018.65 1019.30 1018.87 1019.26 1019.73 1020.30 1020.74 1020.60 1020.71 1020.92 1020.52
1014.84 1014.78 1015.82 1015.73 1015.78 1016.26 1016.26 1017.16 1018.16 1018.37 1019.01 1019.41 1019.36 1020.05 1019.91 1020.03 1020.73 1021.13 1021.21 1020.85 1020.90 1020.93
1016.07 1016.76 1017.18 1017.48 1016.81 1017.56 1018.23 1018.65 1018.86 1019.43 1019.77 1020.13 1020.07 1020.09 1020.46 1020.55 1020.80 1020.97 1020.99 1020.93 1020.84 1020.92
1017.15 1018.31 1018.58 1018.36 1018.96 1019.24 1019.69 1020.04 1020.03 1020.55 1020.69 1021.08 1021.09 1020.85 1020.82 1021.06 1021.10 1021.26 1021.27 1021.28 1021.07 1020.70
1019.51 1019.06 1019.70 1020.00 1020.44 1020.89 1020.70 1020.87 1021.48 1021.94 1021.82 1021.74 1021.83 1021.79 1021.53 1021.60 1021.56 1021.61 1021.42 1021.43 1021.37 1021.14
1021.02 1020.93 1021.20 1022.00 1022.27 1022.21 1021.87 1022.34 1022.89 1023.05 1023.03 1022.91 1022.91 1022.82 1022.45 1022.10 1022.09 1021.98 1021.88 1021.92 1021.75 1021.56
1022.94 1022.84 1023.35 1023.49 1023.69 1023.59 1023.43 1023.68 1024.00 1024.31 1024.45 1024.40 1024.33 1023.88 1023.31 1023.27 1023.34 1023.17 1022.97 1022.80 1022.48 1022.11
1024.76 1024.85 1025.10 1025.09 1024.99 1024.84 1025.22 1025.45 1025.54 1025.59 1025.75 1025.94 1026.00 1025.40 1024.92 1024.53 1024.32 1024.21 1023.98 1023.49 1023.12 1022.66
Wind_Speed
14 10 10 12 10 9 9 9 8 8 6 6 6 6 5 4 4 5 5 7 5 3
13 14 13 13 11 9 9 6 10 9 8 6 6 6 5 4 5 5 4 5 5 3
12 13 10 11 12 10 8 9 10 9 8 8 7 6 6 4 4 5 3 3 4 3
9 9 9 11 9 9 8 9 9 9 9 9 8 7 6 6 5 5 5 3 3 1
11 10 6 5 6 8 9 8 7 6 6 8 8 7 6 5 3 5 4 3 2 3
15 15 14 15 14 14 14 13 12 12 11 9 8 7 6 6 5 4 2 3 2 3
13 12 10 10 13 14 13 12 12 11 10 9 8 9 7 8 5 2 1 3 4 5
14 15 14 14 15 14 15 13 12 12 10 7 7 6 6 7 6 7 6 5 5 5
17 15 15 13 16 15 13 10 10 9 9 11 7 15 14 8 4 4 5 6 6 6
17 13 13 13 13 12 11 10 12 10 10 11 10 18 16 13 5 5 5 6 7 8
12 15 13 13 12 11 10 13 12 12 12 12 14 25 22 18 9 8 9 9 9 10
14 15 15 14 13 11 12 13 12 12 13 14 16 27 27 18 11 11 12 10 9 9
15 16 15 14 13 12 12 13 11 15 15 19 15 27 27 20 9 11 9 9 10 18
15 16 14 14 13 14 13 13 13 13 13 14 13 16 26 26 12 10 9 9 10 11
Wind_Direction
185 189 188 186 184 198 194 195 183 181 170 169 162 164 161 147 146 156 154 156 162 156
187 190 196 191 188 189 190 182 175 168 158 150 138 138 136 138 143 132 132 141 133 130
194 199 192 183 187 182 172 157 158 150 150 148 138 131 124 113 99 112 91 94 113 94
200 200 179 183 182 173 146 149 150 155 149 145 135 118 105 115 99 89 90 74 75 76
44 32 31 70 86 92 87 73 78 82 90 107 101 94 104 110 118 126 116 127 204 240
51 56 57 59 52 56 70 73 69 68 60 49 53 56 64 59 66 45 24 296 266 268
56 62 54 67 81 89 79 73 70 67 65 59 46 63 61 51 32 344 344 340 339 336
56 60 55 60 61 58 63 61 57 64 61 61 68 39 50 52 26 8 354 2 342 317
59 58 61 58 61 58 62 63 63 59 63 52 45 45 41 46 36 14 6 352 337 311
67 62 56 61 64 61 62 61 60 53 52 52 40 37 35 29 27 12 355 339 334 339
61 62 57 55 52 54 57 58 56 54 55 57 47 39 40 38 35 32 27 15 4 354
47 56 56 53 51 51 63 67 63 58 52 51 43 33 31 30 24 22 17 5 3 355
49 54 54 54 51 51 56 61 59 53 47 42 36 30 29 30 18 15 6 2 2 356
47 52 50 52 48 51 50 51 49 51 47 40 27 26 27 25 23 15 2 359 353 350